Time,TemperatureF,DewpointF,PressureIn,WindDirection,WindDirectionDegrees,WindSpeedMPH,WindSpeedGustMPH,Humidity,HourlyPrecipIn,Conditions,Clouds,dailyrainin,SoftwareType,DateUTC
2013-09-14 00:22:00,56.0,39.0,-100.00,East,100,6.0,6.0,52,0.00,,,-99.99,,2013-09-14 05:22:00,
2013-09-14 00:43:00,55.0,39.0,-100.00,ESE,105,4.0,6.0,54,0.00,,,-99.99,,2013-09-14 05:43:00,
2013-09-14 01:12:00,55.0,39.0,-100.00,ESE,105,4.0,7.0,55,0.00,,,-99.99,,2013-09-14 06:12:00,
2013-09-14 01:21:00,54.0,40.0,-100.00,ESE,110,4.0,6.0,58,0.00,,,-99.99,,2013-09-14 06:21:00,
2013-09-14 02:21:00,52.0,41.0,-100.00,SE,125,2.0,4.0,66,0.00,,,-99.99,,2013-09-14 07:21:00,
2013-09-14 02:42:00,51.0,41.0,-100.00,SE,125,3.0,4.0,68,0.00,,,-99.99,,2013-09-14 07:42:00,
2013-09-14 03:22:00,50.0,41.0,-100.00,SE,135,2.0,6.0,71,0.00,,,-99.99,,2013-09-14 08:22:00,
2013-09-14 03:42:00,50.0,41.0,-100.00,SE,125,4.0,6.0,71,0.00,,,-99.99,,2013-09-14 08:42:00,
2013-09-14 04:12:00,49.0,41.0,-100.00,SSE,150,4.0,7.0,71,0.00,,,-99.99,,2013-09-14 09:12:00,
2013-09-14 04:21:00,49.0,40.0,-100.00,SE,140,3.0,6.0,73,0.00,,,-99.99,,2013-09-14 09:21:00,
2013-09-14 04:43:00,48.0,40.0,-100.00,SSE,150,2.0,4.0,75,0.00,,,-99.99,,2013-09-14 09:43:00,
2013-09-14 05:23:00,47.0,41.0,-100.00,SE,135,3.0,6.0,77,0.00,,,-99.99,,2013-09-14 10:23:00,
2013-09-14 05:42:00,47.0,41.0,-100.00,SSE,165,3.0,5.0,77,0.00,,,-99.99,,2013-09-14 10:42:00,
2013-09-14 06:22:00,48.0,41.0,-100.00,SE,145,3.0,6.0,78,0.00,,,-99.99,,2013-09-14 11:22:00,
2013-09-14 07:22:00,47.0,41.0,-100.00,SE,140,4.0,7.0,79,0.00,,,-99.99,,2013-09-14 12:22:00,
2013-09-14 07:42:00,47.0,41.0,-100.00,SE,140,3.0,6.0,79,0.00,,,-99.99,,2013-09-14 12:42:00,
2013-09-14 08:42:00,55.0,44.0,-100.00,SSE,150,4.0,7.0,66,0.00,,,-99.99,,2013-09-14 13:42:00,
2013-09-14 10:22:00,65.0,39.0,-100.00,SSE,165,6.0,12.0,38,0.00,,,-99.99,,2013-09-14 15:22:00,
2013-09-14 11:44:00,71.0,40.0,-100.00,South,170,6.0,14.0,32,0.00,,,-99.99,,2013-09-14 16:44:00,
2013-09-14 12:23:00,73.0,38.0,-100.00,SE,145,7.0,17.0,28,0.00,,,-99.99,,2013-09-14 17:23:00,
2013-09-14 12:43:00,73.0,38.0,-100.00,SSE,150,7.0,16.0,28,0.00,,,-99.99,,2013-09-14 17:43:00,
2013-09-14 13:22:00,75.0,39.0,-100.00,SE,135,4.0,13.0,27,0.00,,,-99.99,,2013-09-14 18:22:00,
2013-09-14 13:43:00,76.0,38.0,-100.00,South,175,7.0,13.0,24,0.00,,,-99.99,,2013-09-14 18:43:00,
2013-09-14 14:22:00,78.0,36.0,-100.00,SE,125,6.0,16.0,21,0.00,,,-99.99,,2013-09-14 19:22:00,
2013-09-14 15:22:00,80.0,37.0,-100.00,SE,135,7.0,16.0,21,0.00,,,-99.99,,2013-09-14 20:22:00,
2013-09-14 15:42:00,78.0,36.0,-100.00,South,185,9.0,17.0,22,0.00,,,-99.99,,2013-09-14 20:42:00,
2013-09-14 16:22:00,79.0,38.0,-100.00,SSE,165,5.0,12.0,22,0.00,,,-99.99,,2013-09-14 21:22:00,
2013-09-14 16:44:00,78.0,37.0,-100.00,SSE,165,4.0,14.0,22,0.00,,,-99.99,,2013-09-14 21:44:00,
2013-09-14 17:24:00,76.0,37.0,-100.00,South,185,5.0,12.0,24,0.00,,,-99.99,,2013-09-14 22:24:00,
2013-09-14 17:42:00,76.0,38.0,-100.00,South,170,6.0,12.0,25,0.00,,,-99.99,,2013-09-14 22:42:00,
2013-09-14 18:23:00,75.0,37.0,-100.00,South,185,10.0,15.0,25,0.00,,,-99.99,,2013-09-14 23:23:00,
2013-09-14 18:42:00,76.0,38.0,-100.00,South,170,4.0,11.0,25,0.00,,,-99.99,,2013-09-14 23:42:00,
2013-09-14 19:22:00,70.0,39.0,-100.00,SE,145,3.0,7.0,31,0.00,,,-99.99,,2013-09-15 00:22:00,
2013-09-14 19:42:00,68.0,39.0,-100.00,SE,145,3.0,6.0,34,0.00,,,-99.99,,2013-09-15 00:42:00,
2013-09-14 20:22:00,67.0,40.0,-100.00,SSE,155,4.0,7.0,37,0.08,,,-99.99,,2013-09-15 01:22:00,
2013-09-14 20:42:00,66.0,40.0,-100.00,SSE,155,4.0,7.0,38,0.00,,,-99.99,,2013-09-15 01:42:00,
2013-09-14 21:22:00,66.0,41.0,-100.00,SSE,160,4.0,8.0,40,0.00,,,-99.99,,2013-09-15 02:22:00,
2013-09-14 21:42:00,65.0,42.0,-100.00,SE,135,4.0,7.0,42,0.00,,,-99.99,,2013-09-15 02:42:00,
2013-09-14 22:22:00,65.0,42.0,-100.00,SSE,150,4.0,9.0,42,0.00,,,-99.99,,2013-09-15 03:22:00,
2013-09-14 23:02:00,-999.0,-99.9,-100.00,SSE,165,4.0,10.0,-999,-99.99,,,-99.99,,2013-09-15 04:02:00,